Regional Weather Roundup
Issued by NWS

Home | Current Version | Previous Version | Graphics & Text | Print | Product List | Glossary On
Versions: 1 2 3 4 5 6 7 8 9 10 11 12 13 14 15 16 17 18 19 20 21 22 23 24 25 26 27 28 29 30 31 32 33 34 35 36 37 38 39 40 41 42 43 44 45 46 47 48 49 50
000
ASUS45 KTFX 011104
RWRMT
MONTANA HOURLY WEATHER ROUNDUP
NATIONAL WEATHER SERVICE GREAT FALLS MT
404 AM MST SUN MAR 1 2015

NOTE: "FAIR" INDICATES FEW OR NO CLOUDS BELOW 12000 FEET WITH NO
SIGNIFICANT WEATHER AND/OR OBSTRUCTIONS TO VISIBILITY.

* THESE STATIONS ARE NOT UNDER NWS QUALITY CONTROL. THEY DO NOT
   REPORT WEATHER SUCH AS PRECIPITATION OR FOG.

MTZ001>007-043-011200-
WEST OF THE DIVIDE
CITY           SKY/WX    TMP DP  RH WIND       PRES   REMARKS
KALISPELL      CLEAR     18   7  62 NE6       30.26S WCI  10
MISSOULA       CLEAR     18   7  62 SE5       30.29S WCI  11
BUTTE          CLEAR      1  -4  79 SE5       30.20S WCI  -9
MULLAN PASS    CLEAR     14  -4  44 SE10      30.08F WCI   1
* ANACONDA     CLEAR      3  -2  79 S6         N/A   WCI  -8
* ESSEX        N/A        9   2  73 E4         N/A
* LINCOLN      N/A       -2  -7  79 N/A        N/A
* LOOKOUT PASS N/A       11   1  64 S1         N/A
* POLSON       N/A       16   2  54 N/A        N/A
* RONAN APT    CLEAR     16   9  74 N/A        N/A
* SEELEY LAKE  N/A       -3  -8  79 N1         N/A
* THOMP F APT  CLEAR     10  -2  58 NW15G28    N/A   WCI  -7
* YAAK HILL    N/A       19   6  57 NE1        N/A
$$

MTZ008-052>055-011200-
SOUTHWEST MONTANA
CITY           SKY/WX    TMP DP  RH WIND       PRES   REMARKS
BOZEMAN        CLEAR      7   1  76 S7        30.26R WCI  -5
DILLON         CLEAR      3  -2  79 S3        30.20R
* W YELLOWSTON PTCLDY    -9 -16  71 N/A        N/A
* THREE FORKS  PTCLDY     7   0  73 N/A        N/A
* BOULDER HILL N/A        5  -5  63 SW6        N/A   WCI  -6
* MONIDA PASS  N/A        5   0  80 W11        N/A   WCI -10
* RAYNOLDS PAS N/A       -2 -36  17 NE3        N/A
* WHITEHALL    N/A        4  -5  66 NE1        N/A
* WISE RIVER   N/A        3  -4  72 SE1        N/A
$$

MTZ009>010-012-014-046-048-049-054-011200-
EAST SLOPES AND CENTRAL MONTANA
CITY           SKY/WX    TMP DP  RH WIND       PRES   REMARKS
CUT BANK       FAIR      10   7  88 CALM      30.20F
GREAT FALLS    CLOUDY    18   9  68 SW12      30.24F WCI   5
HELENA         CLEAR     10   3  73 CALM      30.27F
* DEARBORN     N/A        6   3  87 S1         N/A
* EAST GLACIER N/A        4  -1  79 NW8        N/A   WCI  -9
* MONARCH      N/A       11   5  77 W6         N/A   WCI   1
* PENDROY      N/A       13   9  84 SW3        N/A
* ROGERS PASS  N/A        9   3  76 NW2        N/A
* SWEET GRASS  N/A       17  17 100 W3         N/A
$$

MTZ011-013-016-021-035-040-045-047-050-051-011200-
NORTH CENTRAL MONTANA
CITY           SKY/WX    TMP DP  RH WIND       PRES   REMARKS
HAVRE          CLEAR      9   7  91 W8        30.27R WCI  -3
LEWISTOWN      LGT SNOW  16  10  77 NW9       30.20R WCI   5
* N BAR RANCH  HAZE      16   9  74 NW20G26   30.15R WCI  -1
* CHESTER      N/A       15  11  84 NW3        N/A
* DENTON       N/A       13   7  77 W13        N/A   WCI  -2
* GEYSER       N/A       11   7  84 SW8G13     N/A   WCI  -1
* JUDITH GAP   N/A       13   6  73 NW15G24    N/A   WCI  -3
* LOMA         N/A       14  10  84 SW9        N/A   WCI   2
$$

MTZ017>020-022>027-061-062-011200-
NORTHEAST MONTANA
CITY           SKY/WX    TMP DP  RH WIND       PRES   REMARKS
GLASGOW        CLOUDY    12   9  88 W7        30.19R WCI   1
GLENDIVE       MOCLDY    18  12  77 W9        30.17S WCI   7
JORDAN         CLEAR     16  12  84 W7        30.19R WCI   6
SIDNEY         PTCLDY    18  12  77 W9        30.19R WCI   7
WOLF POINT     CLOUDY    16  12  84 W8        30.19S WCI   5
* BEAVER HILL  N/A       13  10  88 SW12       N/A   WCI  -1
* CIRCLE       N/A       17  14  88 SW5        N/A   WCI   9
* LINDSAY DVD  N/A       14  12  92 W14        N/A   WCI  -1
* NAVAJO       N/A       11   8  88 NW11       N/A   WCI  -3
* SACO         N/A       17  14  88 W10        N/A   WCI   5
$$

MTZ028>042-056>058-011200-
SOUTHCENTRAL AND SOUTHEAST MONTANA
CITY           SKY/WX    TMP DP  RH WIND       PRES   REMARKS
BAKER          LGT SNOW  14   9  80 W12       30.16R VSB 3
BILLINGS       CLEAR     12   5  73 SW12      30.21S WCI  -2
LIVINGSTON     PTCLDY     7   0  73 NW10      30.22S WCI  -7
MILES CITY     CLOUDY    16   9  74 W9        30.20S WCI   5
* LAUREL APT   CLEAR      9  -2  61 N/A        N/A
* ROUNDUP APT  CLEAR      7  -2  66 SW9        N/A   WCI  -6
* ALZADA       N/A        7   3  83 W8         N/A   WCI  -6
* HYSHAM       N/A       15   6  67 W3G9       N/A
* LAME DEER    N/A       11   5  77 W8         N/A   WCI  -1
* REED POINT   N/A        6   5  96 N/A        N/A
* ROSCOE HILL  N/A        9  -3  58 SW4        N/A
$$

REGIONAL REPORTS...DAKOTAS
CITY           SKY/WX    TMP DP  RH WIND       PRES   REMARKS
WILLISTON      CLOUDY    10   7  88 SE3       30.15R
DICKINSON      MOCLDY    12   7  80 W14       30.10S WCI  -4
CROSBY         PTCLDY     9   7  91 NW10      30.13R WCI  -5
WATFORD CITY   LGT SNOW  16  12  84 W10       30.12R WCI   4
BISMARCK       CLOUDY     7   1  76 SW3       30.18S
GRAND FORKS    CLEAR      1  -4  79 SW10      30.15S WCI -15
FARGO          CLEAR      0  -6  75 SW10      30.21S WCI -16
BUFFALO SD     PTCLDY    10   5  80 W8        30.08R WCI  -2
RAPID CITY     PTCLDY    10   7  88 W3        30.20R
$$

REGIONAL REPORTS...WYOMING/IDAHO/WASHINGTON
CITY           SKY/WX    TMP DP  RH WIND       PRES   REMARKS
GILLETTE       PTCLDY    10   7  88 SW12      30.13S WCI  -5
SHERIDAN       PTCLDY     3  -2  79 SE5       30.19R WCI  -7
CODY           PTCLDY     9   3  76 CALM      30.14R
YELLOWSTONE LA PTCLDY   -15 -20  77 CALM      30.06S
SALMON         PTCLDY    18  10  71 NE8       30.22S WCI   8
MULLAN PASS    CLEAR     14  -4  44 SE10      30.08S WCI   1
SAND POINT     CLEAR     19  12  74 N5        30.26F WCI  12
SPOKANE        FAIR      25  10  53 CALM      30.21F
$$

REGIONAL REPORTS...SASKATCHEWAN
CITY           SKY/WX    TMP DP  RH WIND       PRES   REMARKS
REGINA         CLOUDY     0  -2  91 NW7       30.14R WCI -13

$$




USA.gov is the U.S. government's official web portal to all federal, state and local government web resources and services.